Regional Weather Roundup
Issued by NWS

Home | Current Version | Previous Version | Graphics & Text | Print | Product List | Glossary On
Versions: 1 2 3 4 5 6 7 8 9 10 11 12 13 14 15 16 17 18 19 20 21 22 23 24 25 26 27 28 29 30 31 32 33 34 35 36 37 38 39 40 41 42 43 44 45 46 47 48 49 50
000
ASUS43 KFSD 221610
RWRSD

WEATHER ROUNDUP FOR SOUTH DAKOTA
NATIONAL WEATHER SERVICE SIOUX FALLS SD
1100 AM CDT MON SEP 22 2014

NOTE: "FAIR" INDICATES FEW OR NO CLOUDS BELOW 12,000 FEET WITH NO
SIGNIFICANT WEATHER AND/OR OBSTRUCTIONS TO VISIBILITY.


SDZ001>005-009-010-012>017-221700-
NORTHWEST AND NORTH CENTRAL SOUTH DAKOTA

CITY           SKY/WX    TMP DP  RH WIND       PRES   REMARKS
BUFFALO          N/A     65  42  43 SE17      29.96F
FAITH            N/A     62  44  51 SE16G24   30.07F
MOBRIDGE       SUNNY     58  48  69 MISG      30.10F
$$

SDZ012>016-024>037-041>051-057-063-072>074-221700-
SOUTHWEST AND SOUTH CENTRAL SOUTH DAKOTA

CITY           SKY/WX    TMP DP  RH WIND       PRES   REMARKS
RAPID CTY ARPT PTSUNNY   66  45  46 S16       30.06F
PIERRE         MOSUNNY   67  46  47 SE14      30.13F
CUSTER         SUNNY     66  46  48 SW8       30.16F
ELLSWORTH AFB  SUNNY     66  45  46 S16       30.04F
PHILIP         PTSUNNY   72  44  36 S15       30.09F
PINE RIDGE     MOSUNNY   69  45  41 S22G31    30.11S
WINNER         FAIR      69  45  41 S23       30.18F
$$

SDZ004>011-016>023-039-040-221700-
NORTHEAST SOUTH DAKOTA

CITY           SKY/WX    TMP DP  RH WIND       PRES   REMARKS
ABERDEEN       SUNNY     63  49  60 S10       30.19F
WATERTOWN      SUNNY     64  49  57 SW10      30.23F
SISSETON         N/A     68  49  50 W15       30.19F
$$

SDZ017-020-022-023-036>040-048>070-221700-
SOUTHEAST SOUTH DAKOTA

CITY           SKY/WX    TMP DP  RH WIND       PRES   REMARKS
SIOUX FALLS    MOSUNNY   65  49  56 VRB5      30.27F
HURON          SUNNY     64  47  53 S12       30.21F
CHAMBERLAIN    MOSUNNY   65  47  52 S13G20    30.19F
MITCHELL       SUNNY     65  51  60 S8        30.25S
YANKTON        SUNNY     63  52  67 S3        30.27F
$$

ABBREVIATIONS USED IN REMARKS
   TC - TEMPERATURE IN CELSIUS
  WCI - WIND CHILL INDEX
   HX - HEAT INDEX
  VSB - VISIBILITY




USA.gov is the U.S. government's official web portal to all federal, state and local government web resources and services.